Weather History for Madison, SD

Change the Weather History Date:

Wednesday, December 25, 2013

  Actual Average Record
Temperature  
Mean Temperature 24 °F -  
Max Temperature 28 °F 21 °F 41 °F (2011)
Min Temperature 19 °F 2 °F -7 °F (2012)
Degree Days  
Heating Degree Days 42    
Moisture  
Dew Point 25 °F    
Average Humidity 99    
Maximum Humidity 100    
Minimum Humidity 93    
Precipitation  
Precipitation 0.31 in - - ()
Sea Level Pressure  
Sea Level Pressure 30.12 in    
Wind  
Wind Speed 15 mph (WNW)    
Max Wind Speed 28 mph    
Max Gust Speed 34 mph    
Visibility 10 miles    
Events Rain , Snow    
Averages and records for this station are not official NWS values.
T = Trace of Precipitation, MM = Missing Value Source: NWS Daily Summary

Daily Weather History Graph

Daily Weather History Graph

Search for Another Location

Airport:

Trip Planner

Search our weather history database for the weather conditions in past years. The results will help you decide how hot, cold, wet, or windy it might be!

Date:

Astronomy

Dec. 25, 2013 Rise Set
Actual Time 8:01 AM CST 4:55 PM CST
Civil Twilight 7:28 AM CST 5:28 PM CST
Nautical Twilight 6:52 AM CST 6:05 PM CST
Astronomical Twilight 6:16 AM CST 6:40 PM CST
Moon 12:19 AM CST (12/25) 12:10 PM CST (12/25)
Length of Visible Light 10h 00m
Length of Day
8h 53m
Waning Gibbous, 48% of the Moon is Illuminated
Dec 25
Waning Gibbous
Jan 1
New
Jan 7
First Quarter
Jan 15
Full
Jan 23
Last Quarter

Hourly Weather History & Observations

Time (CST) Temp. Windchill Dew Point Humidity Pressure Visibility Wind Dir Wind Speed Gust Speed Precip Events Conditions
4:25 AM 19.4 °F 6.6 °F 19.4 °F 100% 30.03 in 6.0 mi WSW 12.7 mph 19.6 mph 0.05 in Snow Light Snow
4:30 AM 19.4 °F 6.0 °F 19.4 °F 100% 30.03 in 10.0 mi WSW 13.8 mph 19.6 mph 0.05 in Snow Light Snow
4:50 AM 19.4 °F 5.5 °F 19.4 °F 100% 30.03 in 10.0 mi WSW 15.0 mph - 0.06 in Snow Light Snow
5:10 AM 19.4 °F 6.0 °F 19.4 °F 100% 30.03 in 10.0 mi WSW 13.8 mph - N/A   Overcast
5:30 AM 21.2 °F 8.9 °F 21.2 °F 100% 30.02 in 10.0 mi WSW 12.7 mph - N/A   Overcast
5:50 AM 23.0 °F - 23.0 °F 100% 30.02 in 10.0 mi North - - N/A Snow Light Snow
6:10 AM 24.8 °F 14.0 °F 24.8 °F 100% 30.02 in 10.0 mi WSW 11.5 mph - N/A Snow Light Snow
6:30 AM 24.8 °F 13.4 °F 24.8 °F 100% 30.02 in 10.0 mi WSW 12.7 mph - N/A   Overcast
6:50 AM 24.8 °F 14.6 °F 24.8 °F 100% 30.02 in 10.0 mi West 10.4 mph - N/A   Overcast
7:10 AM 24.8 °F 14.0 °F 24.8 °F 100% 30.05 in 3.0 mi WNW 11.5 mph - 0.01 in Snow Light Snow
7:30 AM 26.6 °F 14.7 °F 26.6 °F 100% 30.05 in 3.0 mi NW 15.0 mph - 0.17 in Snow Light Snow
7:50 AM 26.6 °F 14.7 °F 26.6 °F 100% 30.06 in 2.5 mi NW 15.0 mph 20.7 mph 0.25 in Snow Light Snow
8:10 AM 24.8 °F 12.4 °F 24.8 °F 100% 30.07 in 10.0 mi NW 15.0 mph - N/A Snow Light Snow
8:30 AM 26.6 °F 14.7 °F 26.6 °F 100% 30.08 in 10.0 mi NW 15.0 mph - N/A   Overcast
8:50 AM 26.6 °F 13.1 °F 26.6 °F 100% 30.09 in 10.0 mi NW 19.6 mph 24.2 mph N/A   Overcast
9:10 AM 28.4 °F 15.1 °F 28.4 °F 100% 30.11 in 10.0 mi NW 20.7 mph 26.5 mph N/A   Overcast
9:30 AM 28.4 °F 14.1 °F 28.4 °F 100% 30.12 in 10.0 mi NNW 24.2 mph 31.1 mph N/A   Overcast
9:50 AM 28.4 °F 15.4 °F 28.4 °F 100% 30.13 in 10.0 mi NNW 19.6 mph 25.3 mph N/A   Overcast
10:10 AM 28.4 °F 15.4 °F 28.4 °F 100% 30.14 in 10.0 mi NNW 19.6 mph - N/A   Mostly Cloudy
10:30 AM 28.4 °F 13.3 °F 28.4 °F 100% 30.15 in 4.0 mi NNW 27.6 mph 34.5 mph N/A   Overcast
10:50 AM 28.4 °F 14.7 °F 28.4 °F 100% 30.16 in 9.0 mi NW 21.9 mph 34.5 mph N/A Rain Light Freezing Rain
11:10 AM 28.4 °F 15.1 °F 28.4 °F 100% 30.16 in 10.0 mi NW 20.7 mph 32.2 mph N/A   Overcast
11:30 AM 28.4 °F 13.8 °F 28.4 °F 100% 30.16 in 10.0 mi NW 25.3 mph 29.9 mph N/A   Overcast
11:50 AM 28.4 °F 15.1 °F 26.6 °F 93% 30.17 in 10.0 mi NW 20.7 mph 29.9 mph N/A   Mostly Cloudy
12:10 PM 26.6 °F 12.0 °F 26.6 °F 100% 30.17 in 10.0 mi NW 23.0 mph 29.9 mph N/A   Overcast
12:30 PM 26.6 °F 13.4 °F 26.6 °F 100% 30.17 in 10.0 mi NW 18.4 mph 25.3 mph N/A   Overcast
12:50 PM 26.6 °F 12.4 °F 26.6 °F 100% 30.18 in 10.0 mi NW 21.9 mph 29.9 mph N/A   Overcast
1:10 PM 26.6 °F 13.1 °F 26.6 °F 100% 30.17 in 10.0 mi NW 19.6 mph - N/A   Mostly Cloudy
1:30 PM 24.8 °F 11.5 °F 23.0 °F 93% 30.17 in 10.0 mi NW 17.3 mph 23.0 mph N/A   Mostly Cloudy
1:50 PM 24.8 °F 11.1 °F 23.0 °F 93% 30.17 in 10.0 mi NW 18.4 mph 24.2 mph N/A   Mostly Cloudy
2:10 PM 24.8 °F 11.5 °F 23.0 °F 93% 30.18 in 10.0 mi NW 17.3 mph - N/A   Scattered Clouds
2:30 PM 24.8 °F 11.9 °F 23.0 °F 93% 30.18 in 10.0 mi NW 16.1 mph 21.9 mph N/A   Clear
2:50 PM 24.8 °F 11.5 °F 23.0 °F 93% 30.18 in 10.0 mi NW 17.3 mph 23.0 mph N/A   Clear
3:10 PM 24.8 °F 11.9 °F 23.0 °F 93% 30.18 in 10.0 mi NW 16.1 mph - N/A   Mostly Cloudy
3:30 PM 24.8 °F 14.6 °F 24.8 °F 100% 30.18 in 10.0 mi NW 10.4 mph - N/A   Scattered Clouds
3:50 PM 23.0 °F 12.4 °F 23.0 °F 100% 30.17 in 10.0 mi WNW 10.4 mph - N/A   Partly Cloudy
4:10 PM 23.0 °F 11.7 °F 23.0 °F 100% 30.17 in 10.0 mi WNW 11.5 mph - N/A   Clear
4:30 PM 23.0 °F 11.7 °F 23.0 °F 100% 30.17 in 10.0 mi WNW 11.5 mph - N/A   Partly Cloudy
4:50 PM 24.8 °F 13.4 °F 24.8 °F 100% 30.17 in 10.0 mi WNW 12.7 mph - N/A   Mostly Cloudy
5:10 PM 23.0 °F 11.7 °F 23.0 °F 100% 30.16 in 10.0 mi West 11.5 mph - N/A   Mostly Cloudy
5:30 PM 23.0 °F 10.6 °F 23.0 °F 100% 30.16 in 10.0 mi WNW 13.8 mph - N/A   Mostly Cloudy
5:50 PM 23.0 °F 12.4 °F 23.0 °F 100% 30.16 in 10.0 mi West 10.4 mph - N/A   Partly Cloudy
6:10 PM 23.0 °F 11.7 °F 23.0 °F 100% 30.16 in 10.0 mi West 11.5 mph - N/A   Scattered Clouds
6:30 PM 24.8 °F 14.6 °F 24.8 °F 100% 30.15 in 10.0 mi West 10.4 mph - N/A   Mostly Cloudy
6:50 PM 24.8 °F 14.0 °F 24.8 °F 100% 30.15 in 10.0 mi West 11.5 mph - N/A   Mostly Cloudy
7:10 PM 24.8 °F 14.0 °F 24.8 °F 100% 30.15 in 10.0 mi West 11.5 mph 17.3 mph N/A   Overcast
7:30 PM 24.8 °F 15.3 °F 24.8 °F 100% 30.14 in 10.0 mi West 9.2 mph - N/A   Overcast
7:50 PM 24.8 °F 14.6 °F 24.8 °F 100% 30.14 in 10.0 mi WSW 10.4 mph - N/A   Overcast
8:10 PM 24.8 °F 14.0 °F 24.8 °F 100% 30.13 in 10.0 mi West 11.5 mph - N/A   Overcast
8:30 PM 24.8 °F 14.0 °F 24.8 °F 100% 30.12 in 10.0 mi West 11.5 mph - N/A   Overcast
8:50 PM 24.8 °F 14.0 °F 24.8 °F 100% 30.12 in 10.0 mi SW 11.5 mph - N/A   Overcast
9:10 PM 24.8 °F 14.0 °F 24.8 °F 100% 30.11 in 10.0 mi WSW 11.5 mph - N/A   Overcast
9:30 PM 24.8 °F 14.6 °F 24.8 °F 100% 30.10 in 10.0 mi WSW 10.4 mph - N/A   Overcast
9:50 PM 24.8 °F 14.0 °F 24.8 °F 100% 30.10 in 10.0 mi WSW 11.5 mph - N/A   Overcast
10:10 PM 24.8 °F 14.0 °F 24.8 °F 100% 30.09 in 10.0 mi WSW 11.5 mph - N/A   Overcast
10:30 PM 23.0 °F 11.7 °F 23.0 °F 100% 30.09 in 10.0 mi WSW 11.5 mph - N/A   Mostly Cloudy
10:50 PM 23.0 °F 12.4 °F 23.0 °F 100% 30.09 in 10.0 mi WSW 10.4 mph - N/A   Mostly Cloudy
11:10 PM 23.0 °F 12.4 °F 23.0 °F 100% 30.09 in 10.0 mi WSW 10.4 mph - N/A   Overcast
11:30 PM 23.0 °F 11.7 °F 23.0 °F 100% 30.08 in 10.0 mi WSW 11.5 mph - N/A   Overcast
11:50 PM 23.0 °F 11.7 °F 23.0 °F 100% 30.08 in 10.0 mi WSW 11.5 mph - N/A   Overcast